Погода в Монце

Италия     45°35′02″N   9°16′15″E
темп.,
°C
ветер,
м/с
пор.,
м/с
влажн.,
%
обл.,
%
осадки,
мм/ч
давл.,
гПа
погр.,
м
21 апреля, ср
ср2123:00+11сз257048 0.3 1016243
02:00+10з26775 0.3 1016216
05:00+9з23825 0.0 101794
08:00+10з127695 0.0 1018167
11:00+14юз1255100 0.0 1018937
14:00+17ююз2242100 0.0 10171601
17:00+17ююз223747 0.0 10161947
20:00+14юз36635 0.2 1017477
22 апреля, чт
чт2223:00+12з26655 0.1 1018232
02:00+10зюз23725 0.1 101887
05:00+9зюз12825 0.0 101863
08:00+10юз12805 0.0 1019165
11:00+15юз12565 0.0 1019890
14:00+19юз22415 0.0 10181729
17:00+19ююз22380 0.0 10161866
20:00+16ю24555 0.0 1016156
23 апреля, пт
пт2323:00+13в22675 0.0 101858
02:00+12всв237644 0.0 101969
05:00+12всв2576100 0.0 1020244
08:00+12в3681100 0.0 1021339
11:00+13вюв357492 0.0 1022709
14:00+16вюв236083 0.1 10221229
17:00+18вюв325553 0.1 10211366
20:00+15вюв24680 0.1 1021182
24 апреля, сб
сб2423:00+13всв23741 0.0 102376
02:00+12в128079 0.0 102376
05:00+12в127992 0.0 102386
08:00+12вюв127593 0.0 1023166
11:00+17ююв11570 0.0 1022727
14:00+20ююв214558 0.0 10211761
17:00+20ююв324553 0.0 10191615
20:00+17ююв24620 0.0 1019150
25 апреля, вс
вс2523:00+14в12695 0.0 102050
02:00+13всв117613 0.0 102033
05:00+12в22818 0.0 102064
08:00+12в137686 0.0 1020147
11:00+14в2365100 0.0 1021333
14:00+16в2352100 0.0 1020549
17:00+17в2253100 0.0 1019642
20:00+16ссв1264100 0.0 101983